Weather Roundup
Issued by NWS

Home | Current Version | Previous Version | Graphics & Text | Print | Product List | Glossary Off
Versions: 1 2 3 4 5 6 7 8 9 10 11 12 13 14 15 16 17 18 19 20 21 22 23 24 25 26 27 28 29 30 31 32 33 34 35 36 37 38 39 40 41 42 43 44 45 46 47 48 49 50

000
NZUS93 KARX 211159
HRRWXR

CURRENT HOURLY OBSERVATIONS ACROSS
MUCH OF THE UPPER MISSISSIPPI VALLEY
NATIONAL WEATHER SERVICE LA CROSSE WI
700 AM CDT SUN SEP 21 2014


...SOUTHEAST MINNESOTA...


CITY           SKY/WX    TMP DP  RH WIND       PRES   REMARKS
ROCHESTER      CLOUDY    52  47  83 NW20G30   29.96R
ROCHESTER/MAYO CLOUDY    53  46  79 NW18G28   29.96R
WINONA         CLOUDY    55  50  82 NW15G24   29.91R
AUSTIN         PTCLDY    52  48  87 NW16G22   29.98R
ALBERT LEA     CLEAR     52  48  87 NW10      30.01R
DODGE CENTER   CLOUDY    52  48  87 NW15G25   29.98R
PRESTON        MOCLDY    51  50  95 NW18G24   29.94R
OWATONNA       CLEAR     52  46  82 NW10      30.01R
FARIBAULT      CLEAR     54  46  76 NW7       30.00R
$$

...ELSEWHERE IN MINNESOTA...


CITY           SKY/WX    TMP DP  RH WIND       PRES   REMARKS
MINNEAPOLIS    MOCLDY    53  47  79 NW14      30.00R
INTNL FALLS    MOCLDY    48  46  93 NW6       30.03R
DULUTH         CLOUDY    52  48  87 NW7       29.97R
RED WING       LGT RAIN  54  48  82 NW10G16   29.95R
REDWOOD FALLS  CLEAR     51  48  89 NW9       30.08R
MANKATO        CLEAR     52  45  76 NW10      30.03R
WORTHINGTON    CLEAR     50  45  81 NW12      30.12R
FAIRMONT       CLEAR     54  43  66 NW15      30.06R
$$

...SOUTHWEST WISCONSIN...


CITY           SKY/WX    TMP DP  RH WIND       PRES   REMARKS
LA CROSSE      CLOUDY    57  48  72 NW18G28   29.88R
PRAIRIE DU CHI PTCLDY    56  49  76 W13G18    29.87R
BOSCOBEL       PTCLDY    57  48  72 NW9       29.87R
LONE ROCK      NOT AVBL
PLATTEVILLE    CLEAR     53  51  93 W8        29.87R
FORT MC COY    CLOUDY    55  46  73 NW16G26   29.85R
CAMP DOUGLAS   LGT RAIN  54  54 100 NW12G24   29.83R
VIROQUA        CLOUDY    53  49  84 NW13G18   29.85R
WIS DELLS      CLOUDY    55  46  74 NW9G23    29.80R
$$

...ELSEWHERE IN WISCONSIN...


CITY           SKY/WX    TMP DP  RH WIND       PRES   REMARKS
MILWAUKEE      MOCLDY    57  49  74 W14       29.73R
MADISON        CLOUDY    56  49  77 NW10G18   29.79R
GREEN BAY      LGT RAIN  55  54  96 N10       29.72R
EAU CLAIRE     NOT AVBL
BLACK RVR FLS  CLOUDY    55  48  77 NW9G18    29.84R
MEDFORD        LGT RAIN  52  51  97 NW9       29.81R
WAUSAU         LGT RAIN  53  52  96 N8        29.79R
WIS RAPIDS     CLOUDY    53  51  93 NW8       29.81R
MARSHFIELD     CLOUDY    54  52  93 NW10      29.82R
RICE LAKE      CLOUDY    53  50  92 NW9G17    29.91R
$$

...NORTHEAST IOWA...


CITY           SKY/WX    TMP DP  RH WIND       PRES   REMARKS
WATERLOO       CLEAR     54  48  80 NW12      29.96R
DUBUQUE        CLEAR     53  50  89 W14       29.89R
DECORAH        PTCLDY    54  48  82 NW9G16    29.90R
MASON CITY     CLEAR     52  48  86 NW17      30.02R
CHARLES CITY   CLEAR     52  48  87 NW13      29.97R
OELWEIN        NOT AVBL
$$

...ELSEWHERE IN IOWA...


CITY           SKY/WX    TMP DP  RH WIND       PRES   REMARKS
DES MOINES     CLEAR     56  47  71 NW9       30.04R
IOWA CITY        N/A     54  51  90 W10       29.96R
FORT DODGE     CLEAR     52  45  76 CALM      30.05R
MARSHALLTOWN   CLEAR     52  48  86 W10       30.00R
CEDAR RAPIDS   CLEAR     53  51  93 W13       29.94R
$$

...NORTHERN ILLINOIS...


CITY           SKY/WX    TMP DP  RH WIND       PRES   REMARKS
CHICAGO-OHARE  PTCLDY    58  51  78 W14G24    29.79S
DUPAGE         CLEAR     55  51  86 W14       29.82R
CHICAGO-MIDWAY PTCLDY    60  52  74 W13G22    29.81R
MOLINE         CLEAR     58  51  78 W13G21    29.91R
ROCKFORD       PTCLDY    55  51  86 W13       29.85R
STERLING       CLEAR     54  50  87 NW6       29.88S
PEORIA         CLEAR     57  50  77 W7        29.93S
$$

NOTE: "FAIR" INDICATES FEW OR NO CLOUDS BELOW 12,000 FEET WITH NO
SIGNIFICANT WEATHER AND/OR OBSTRUCTIONS TO VISIBILITY. WIND
SPEEDS ARE IN MILES-PER-HOUR.



USA.gov is the U.S. government's official web portal to all federal, state and local government web resources and services.